Dewpoint
66 66 66 67 69 70 69 68 68 67 66 64 63 63 66 63 58 58 60 59 64 63 63 64 64 64 63 62 64 64 63 63 63
63 64 65 66 67 68 69 68 69 67 66 64 63 63 64 55 58 58 59 63 62 62 64 64 64 64 64 63 64 64 63 61 63
59 61 63 65 66 67 68 69 67 68 67 64 63 63 63 56 57 58 59 63 62 65 62 63 64 64 63 63 63 63 63 61 63
57 58 60 62 64 65 66 67 68 66 67 64 63 62 62 57 57 59 61 65 65 63 61 64 62 64 63 64 62 63 61 63 62
53 54 57 59 61 63 64 65 66 67 67 65 63 62 62 57 59 61 63 66 64 62 62 63 62 63 63 62 62 62 61 62 62
45 51 54 56 58 60 61 62 63 62 63 66 64 62 59 54 59 61 64 63 64 62 61 62 63 63 62 62 61 61 60 61 60
42 48 50 52 55 56 58 59 59 59 59 61 63 60 58 56 60 63 64 64 63 62 62 61 62 62 62 60 60 60 60 59 59
42 42 43 47 51 49 53 55 55 57 58 59 61 62 60 57 58 62 64 64 61 59 59 62 62 61 60 59 59 57 58 59 57
40 41 42 43 46 46 49 53 55 56 57 59 60 61 60 60 58 62 63 64 61 59 60 61 61 61 60 58 58 58 58 56 56
40 41 41 42 43 44 47 49 52 56 57 58 59 60 60 59 59 61 62 63 63 61 60 58 60 59 60 57 56 56 57 57 57
39 41 41 42 42 43 45 47 50 54 56 58 59 59 61 60 60 60 61 62 63 63 60 61 60 61 60 59 57 56 55 55 55
37 39 40 40 41 41 43 47 50 51 52 53 58 58 59 59 60 62 61 61 62 62 61 60 60 60 59 59 57 56 55 54 54
36 37 38 39 40 40 43 47 48 48 49 51 56 57 57 58 59 61 62 62 61 61 61 61 60 59 60 59 58 56 55 56 56
35 36 37 38 39 39 41 46 47 46 47 52 56 57 58 58 59 59 60 61 61 61 60 60 60 61 58 58 59 60 59 58 57
35 35 35 37 37 38 39 42 46 46 46 51 56 57 57 57 57 57 58 58 59 60 59 60 59 60 60 57 56 56 56 58 59
34 35 35 35 36 36 38 40 44 45 45 49 52 54 54 54 55 56 56 56 57 58 58 58 58 58 60 59 59 58 56 56 56
30 33 34 34 35 35 37 38 41 45 45 45 48 50 52 53 52 54 54 54 55 55 56 56 57 57 57 57 58 59 60 60 59
32 31 32 33 34 34 35 37 38 40 42 44 45 45 45 47 53 49 51 53 52 52 55 55 55 55 55 54 53 56 57 59 60
31 31 31 31 33 33 35 36 37 38 39 43 43 45 45 44 46 51 47 50 51 50 54 54 53 52 53 49 50 54 57 58 59
28 30 30 30 32 32 33 34 35 37 38 40 41 42 44 42 43 41 42 44 47 47 53 51 50 48 47 46 47 50 53 56 59
Lifted_Index
4 4 3 2 2 2 2 2 2 3 4 6 7 7 8 8 8 8 8 7 7 7 7 7 7 7 7 7 7 6 7 7 7
6 5 3 3 2 2 2 2 2 3 4 6 7 8 8 8 8 8 8 7 7 7 7 7 7 7 7 7 7 7 7 7 7
9 7 5 4 3 3 3 2 3 3 4 6 8 8 9 8 8 8 8 7 7 7 8 8 7 7 7 7 7 7 8 8 8
11 10 7 5 4 4 3 3 3 3 4 6 8 9 9 9 8 8 7 7 7 7 8 8 8 8 8 8 8 8 8 8 8
13 12 9 7 5 4 4 3 3 3 4 6 7 8 9 9 8 8 7 7 7 8 8 8 8 8 8 9 9 9 9 9 9
15 13 11 9 7 5 4 3 3 3 4 5 6 7 8 8 8 8 7 7 8 8 9 9 8 9 9 9 10 10 10 10 10
17 16 13 11 8 7 5 4 3 3 3 4 5 6 7 8 8 8 8 8 8 9 9 9 9 9 10 10 11 11 11 11 11
19 18 16 13 10 8 7 5 4 3 3 3 4 5 6 7 7 8 7 8 9 10 10 9 9 10 10 11 11 12 12 12 12
20 19 18 16 13 11 9 7 6 4 4 3 4 4 5 6 7 7 7 7 8 9 10 10 10 10 11 12 12 12 12 12 13
19 20 19 19 17 14 11 9 8 6 5 4 4 4 4 5 6 7 7 7 8 8 9 9 10 10 11 11 12 13 13 13 13
19 20 20 20 19 17 15 12 10 8 7 6 5 4 4 5 6 7 7 7 7 7 8 8 9 9 10 11 12 12 13 13 13
20 20 20 20 20 19 17 14 12 10 9 7 6 5 4 4 5 6 7 8 8 7 7 7 7 8 8 9 10 11 12 12 12
20 20 20 20 20 19 17 15 14 13 11 9 8 7 5 5 5 6 7 7 8 8 8 7 7 7 7 8 8 9 10 10 10
20 20 20 20 20 19 18 16 15 13 11 10 9 8 6 6 5 6 6 7 7 8 8 7 7 6 7 7 7 8 8 8 8
20 20 20 20 19 19 18 16 14 13 11 10 9 8 8 7 6 6 6 6 7 8 8 8 7 6 6 7 7 7 8 7 7
20 20 20 19 19 18 18 16 13 12 10 10 9 9 8 8 7 7 6 6 7 7 8 8 8 7 6 6 7 7 7 7 7
20 20 19 19 19 18 18 16 14 12 11 10 9 9 9 8 8 7 7 7 7 7 8 8 8 8 7 6 7 7 7 7 6
20 20 20 19 19 18 18 17 16 14 12 10 10 9 9 8 8 8 8 8 8 8 8 8 9 8 7 7 7 7 7 7 6
20 20 20 20 19 19 18 18 17 15 13 12 10 10 9 9 8 8 8 9 9 9 9 9 9 9 8 7 7 7 7 7 7
20 20 20 20 19 19 19 18 17 16 15 12 11 11 10 9 8 7 8 9 10 10 9 9 9 9 8 7 7 7 7 7 7